M I D A S
Marine Information and Data Acquisition System
Tripno 2328 of the Zeeleeuw from 2012-06-13 06:36:32 to 2012-06-13 15:00:56
Back to CruiseResearch ActivitiesStationsMapUnderway DataData graphs

EquipmentUnitsComments
TimeDGPSUTC
LatitudeDGPSDM.mWGS84
LongitudeDGPSDM.mWGS84
SpeedMeteo Stationm/sRelative wind speed
DirectionMeteo StationdegRelative wind direction
TemperatureMeteo Stationdeg CelciusAir temperature
PressureMeteo StationPaAtmospheric pressure
HumidityMeteo Station%Relative humidity
Missing or incorrect values are displayed as -999
Metereological data collected by the RV Zeeleeuw from 2012-06-13 06:15:50 to 2012-06-13 15:20:09
                                                                                    Next 1000 lines
Time Latitude Longitude Speed Direction Temperature Pressure Humidity
2012-06-13 06:15:59 51°13.631 2°56.009 -999 264 11.8 101420 39
2012-06-13 06:16:04 51°13.632 2°56.005 -999 306 11.8 101420 39
2012-06-13 06:16:10 51°13.633 2°56 -999 265 11.8 101420 39
2012-06-13 06:16:15 51°13.634 2°55.996 -999 306 11.8 101420 39
2012-06-13 06:16:19 51°13.635 2°55.993 -999 262 11.8 101420 39
2012-06-13 06:16:24 51°13.636 2°55.988 -999 305 11.8 101420 39
2012-06-13 06:16:30 51°13.637 2°55.983 -999 270 11.9 101420 39
2012-06-13 06:16:35 51°13.638 2°55.979 -999 54 11.9 101420 39
2012-06-13 06:16:39 51°13.638 2°55.975 -999 14 11.8 101420 39
2012-06-13 06:16:45 51°13.639 2°55.97 -999 9 11.8 101420 39
2012-06-13 06:16:50 51°13.64 2°55.965 -999 21 11.9 101430 39
2012-06-13 06:16:55 51°13.641 2°55.96 -999 277 11.9 101430 39
2012-06-13 06:16:59 51°13.642 2°55.956 -999 27 11.8 101420 39
2012-06-13 06:17:04 51°13.643 2°55.951 -999 55 11.8 101420 39
2012-06-13 06:17:09 51°13.644 2°55.946 -999 24 11.8 101420 39
2012-06-13 06:17:15 51°13.645 2°55.938 -999 54 11.8 101420 39
2012-06-13 06:17:19 51°13.646 2°55.933 -999 24 11.9 101420 39
2012-06-13 06:17:24 51°13.648 2°55.926 -999 54 11.9 101420 39
2012-06-13 06:17:29 51°13.65 2°55.919 -999 24 11.8 101420 39
2012-06-13 06:17:34 51°13.652 2°55.911 -999 54 11.8 101420 39
2012-06-13 06:17:39 51°13.653 2°55.903 -999 24 11.8 101430 39
2012-06-13 06:17:44 51°13.656 2°55.896 -999 54 11.8 101430 39
2012-06-13 06:17:49 51°13.658 2°55.888 -999 24 11.8 101430 37
2012-06-13 06:17:54 51°13.66 2°55.88 -999 54 11.8 101430 37
2012-06-13 06:17:59 51°13.663 2°55.871 -999 258 11.8 101430 39
2012-06-13 06:18:04 51°13.666 2°55.863 -999 54 11.8 101430 39
2012-06-13 06:18:09 51°13.668 2°55.855 -999 24 11.8 101420 39
2012-06-13 06:18:14 51°13.671 2°55.846 -999 54 11.8 101420 39
2012-06-13 06:18:19 51°13.675 2°55.838 -999 24 11.8 101420 39
2012-06-13 06:18:25 51°13.678 2°55.829 -999 54 11.8 101420 39
2012-06-13 06:18:29 51°13.681 2°55.822 -999 24 11.8 101420 38
2012-06-13 06:18:35 51°13.685 2°55.813 -999 54 11.8 101420 38
2012-06-13 06:18:39 51°13.688 2°55.807 5.1 19 11.8 101420 39
2012-06-13 06:18:44 51°13.692 2°55.8 6.9 52 11.8 101420 39
2012-06-13 06:18:50 51°13.696 2°55.791 6.1 25 11.8 101420 39
2012-06-13 06:18:54 51°13.699 2°55.784 4.6 79 11.8 101420 39
2012-06-13 06:18:59 51°13.704 2°55.776 6.7 26 11.8 101430 39
2012-06-13 06:19:04 51°13.708 2°55.768 4.5 54 11.8 101430 39
2012-06-13 06:19:09 51°13.712 2°55.76 2.9 28 11.8 101420 39
2012-06-13 06:19:15 51°13.717 2°55.75 6.6 58 11.8 101420 39
2012-06-13 06:19:20 51°13.721 2°55.742 6 28 11.8 101420 39
2012-06-13 06:19:24 51°13.725 2°55.736 5.1 56 11.8 101420 39
2012-06-13 06:19:29 51°13.729 2°55.727 5.8 27 11.8 101420 40
2012-06-13 06:19:34 51°13.734 2°55.719 4 51 11.8 101420 40
2012-06-13 06:19:39 51°13.738 2°55.711 5.1 26 11.8 101420 39
2012-06-13 06:19:44 51°13.743 2°55.704 4.4 51 11.8 101420 39
2012-06-13 06:19:49 51°13.749 2°55.696 0.3 21 11.8 101420 39
2012-06-13 06:19:53 51°13.753 2°55.69 0.1 54 11.8 101420 39
2012-06-13 06:19:59 51°13.76 2°55.681 0.1 24 11.8 101420 40
2012-06-13 06:20:05 51°13.767 2°55.672 -999 54 11.8 101420 40
2012-06-13 06:20:10 51°13.773 2°55.665 -999 23 11.8 101430 39
2012-06-13 06:20:14 51°13.778 2°55.66 -999 54 11.8 101430 39
2012-06-13 06:20:19 51°13.785 2°55.653 -999 24 11.8 101430 40
2012-06-13 06:20:24 51°13.791 2°55.647 -999 54 11.8 101430 40
2012-06-13 06:20:29 51°13.798 2°55.641 -999 24 11.8 101420 38
2012-06-13 06:20:35 51°13.806 2°55.634 -999 54 11.8 101420 38
2012-06-13 06:20:39 51°13.811 2°55.63 -999 24 11.8 101420 39
2012-06-13 06:20:44 51°13.818 2°55.624 5.6 50 11.8 101420 39
2012-06-13 06:20:49 51°13.824 2°55.619 5.1 22 11.8 101430 39
2012-06-13 06:20:54 51°13.831 2°55.615 2.9 75 11.8 101430 39
2012-06-13 06:20:59 51°13.837 2°55.61 6.2 24 11.8 101430 40
2012-06-13 06:21:04 51°13.844 2°55.607 2.5 55 11.8 101430 40
2012-06-13 06:21:09 51°13.851 2°55.603 3.9 24 11.8 101430 40
2012-06-13 06:21:14 51°13.857 2°55.601 6.5 54 11.8 101430 40
2012-06-13 06:21:19 51°13.864 2°55.599 3.3 27 11.8 101430 39
2012-06-13 06:21:24 51°13.871 2°55.597 4.1 54 11.8 101430 39
2012-06-13 06:21:29 51°13.877 2°55.597 0.2 21 11.8 101430 39
2012-06-13 06:21:35 51°13.885 2°55.598 0.1 54 11.8 101430 39
2012-06-13 06:21:39 51°13.89 2°55.599 -999 23 11.8 101430 39
2012-06-13 06:21:44 51°13.896 2°55.602 -999 54 11.8 101430 39
2012-06-13 06:21:49 51°13.902 2°55.605 5.4 29 11.8 101420 40
2012-06-13 06:21:54 51°13.908 2°55.609 6.1 51 11.8 101420 40
2012-06-13 06:21:59 51°13.914 2°55.614 3.1 20 12 101430 42
2012-06-13 06:22:04 51°13.919 2°55.619 6.4 56 12 101430 42
2012-06-13 06:22:09 51°13.923 2°55.625 5.7 25 12.1 101420 41
2012-06-13 06:22:15 51°13.928 2°55.631 4.7 57 12.1 101420 41
2012-06-13 06:22:19 51°13.932 2°55.635 6 25 12.1 101420 39
2012-06-13 06:22:24 51°13.935 2°55.64 4.8 53 12.1 101420 39
2012-06-13 06:22:29 51°13.939 2°55.645 5.1 45 12.1 101420 38
2012-06-13 06:22:34 51°13.942 2°55.65 5.1 43 12.1 101420 38
2012-06-13 06:22:39 51°13.944 2°55.654 5.3 41 12.1 101410 38
2012-06-13 06:22:44 51°13.947 2°55.657 5.1 50 12.1 101410 38
2012-06-13 06:22:49 51°13.948 2°55.659 5.9 44 12.1 101420 39
2012-06-13 06:22:54 51°13.948 2°55.659 4.7 39 12.1 101420 39
2012-06-13 06:22:59 51°13.948 2°55.657 3.2 32 12.1 101410 39
2012-06-13 06:23:04 51°13.948 2°55.653 3.9 27 12.1 101410 39
2012-06-13 06:23:10 51°13.947 2°55.647 3.6 13 12.1 101410 37
2012-06-13 06:23:15 51°13.948 2°55.641 4 6 12.1 101410 37
2012-06-13 06:23:20 51°13.949 2°55.635 3.1 9 12 101410 38
2012-06-13 06:23:24 51°13.95 2°55.629 5.2 359 12 101410 38
2012-06-13 06:23:29 51°13.952 2°55.623 5.8 8 12 101410 38
2012-06-13 06:23:35 51°13.956 2°55.614 4.6 352 12 101410 38
2012-06-13 06:23:39 51°13.959 2°55.608 4.9 353 12 101410 39
2012-06-13 06:23:44 51°13.964 2°55.601 6.3 354 12 101410 39
2012-06-13 06:23:49 51°13.97 2°55.594 5.3 346 12 101410 39
2012-06-13 06:23:54 51°13.976 2°55.585 8.1 278 12 101410 39
2012-06-13 06:23:59 51°13.983 2°55.576 7.8 343 12 101420 39
2012-06-13 06:24:05 51°13.992 2°55.566 6.4 346 12 101420 39
2012-06-13 06:24:09 51°13.998 2°55.558 7.3 342 12 101410 39
2012-06-13 06:24:13 51°14.005 2°55.551 8.5 346 12 101410 39
2012-06-13 06:24:20 51°14.017 2°55.538 5.4 345 11.9 101410 39
2012-06-13 06:24:25 51°14.026 2°55.529 7.1 347 11.9 101410 39
2012-06-13 06:24:30 51°14.036 2°55.52 6.3 343 11.9 101410 38
2012-06-13 06:24:34 51°14.043 2°55.512 7.6 341 11.9 101410 38
2012-06-13 06:24:39 51°14.053 2°55.502 10.4 344 11.9 101410 39
2012-06-13 06:24:44 51°14.064 2°55.493 10 347 11.9 101410 39
2012-06-13 06:24:50 51°14.076 2°55.481 9.9 343 11.9 101410 39
2012-06-13 06:24:55 51°14.086 2°55.471 9.8 344 11.9 101410 39
2012-06-13 06:24:59 51°14.094 2°55.463 8 345 11.9 101410 40
2012-06-13 06:25:04 51°14.104 2°55.452 8.5 346 11.9 101410 40
2012-06-13 06:25:09 51°14.114 2°55.442 7.6 343 11.9 101400 40
2012-06-13 06:25:14 51°14.124 2°55.431 9.1 344 11.9 101400 40
2012-06-13 06:25:19 51°14.135 2°55.422 7 339 11.9 101400 40
2012-06-13 06:25:23 51°14.144 2°55.413 9.3 341 11.9 101400 40
2012-06-13 06:25:30 51°14.159 2°55.399 11.2 344 11.8 101410 40
2012-06-13 06:25:35 51°14.17 2°55.389 11.9 342 11.8 101410 40
2012-06-13 06:25:40 51°14.181 2°55.379 11 342 11.8 101400 40
2012-06-13 06:25:44 51°14.189 2°55.37 12 343 11.8 101400 40
2012-06-13 06:25:49 51°14.2 2°55.36 8.5 341 11.8 101400 40
2012-06-13 06:25:54 51°14.211 2°55.35 11.8 284 11.8 101400 40
2012-06-13 06:26:00 51°14.224 2°55.337 11.1 342 11.8 101400 41
2012-06-13 06:26:05 51°14.236 2°55.326 9.1 339 11.8 101400 41
2012-06-13 06:26:09 51°14.244 2°55.317 9.5 339 11.8 101400 42
2012-06-13 06:26:14 51°14.256 2°55.306 8 340 11.8 101400 42
2012-06-13 06:26:19 51°14.268 2°55.295 8.6 340 11.8 101400 41
2012-06-13 06:26:24 51°14.279 2°55.284 11.6 341 11.8 101400 41
2012-06-13 06:26:29 51°14.291 2°55.272 11.6 339 11.8 101400 42
2012-06-13 06:26:33 51°14.3 2°55.262 10.2 337 11.8 101400 42
2012-06-13 06:26:39 51°14.314 2°55.248 13.3 339 11.8 101410 42
2012-06-13 06:26:44 51°14.326 2°55.236 10.1 338 11.8 101410 42
2012-06-13 06:26:49 51°14.337 2°55.224 12.1 340 11.9 101400 42
2012-06-13 06:26:54 51°14.349 2°55.212 8.4 336 11.9 101400 42
2012-06-13 06:26:59 51°14.361 2°55.2 7.7 338 11.9 101400 42
2012-06-13 06:27:04 51°14.372 2°55.187 10.4 339 11.9 101400 42
2012-06-13 06:27:09 51°14.384 2°55.175 7.9 341 11.8 101400 41
2012-06-13 06:27:14 51°14.396 2°55.162 8.2 341 11.8 101400 41
2012-06-13 06:27:19 51°14.407 2°55.149 7.4 341 11.8 101410 41
2012-06-13 06:27:24 51°14.418 2°55.136 7.1 340 11.8 101410 41
2012-06-13 06:27:30 51°14.432 2°55.12 7.4 337 11.8 101400 41
2012-06-13 06:27:34 51°14.441 2°55.11 11.2 340 11.8 101400 41
2012-06-13 06:27:38 51°14.45 2°55.1 12.2 340 11.7 101410 41
2012-06-13 06:27:45 51°14.467 2°55.081 7.4 339 11.7 101410 41
2012-06-13 06:27:50 51°14.478 2°55.069 10.5 338 11.7 101410 41
2012-06-13 06:27:55 51°14.49 2°55.057 9.6 283 11.7 101410 41
2012-06-13 06:27:59 51°14.499 2°55.047 7.3 339 11.7 101410 41
2012-06-13 06:28:04 51°14.511 2°55.035 10.3 338 11.7 101410 41
2012-06-13 06:28:09 51°14.523 2°55.023 10.4 338 11.7 101400 40
2012-06-13 06:28:14 51°14.536 2°55.012 9.9 341 11.7 101400 40
2012-06-13 06:28:19 51°14.548 2°55.001 8.7 343 11.7 101420 41
2012-06-13 06:28:24 51°14.56 2°54.989 13.3 342 11.7 101420 41
2012-06-13 06:28:28 51°14.571 2°54.981 9.3 340 11.7 101410 39
2012-06-13 06:28:34 51°14.587 2°54.971 12.4 341 11.7 101410 39
2012-06-13 06:28:39 51°14.6 2°54.963 13.4 341 11.7 101410 42
2012-06-13 06:28:43 51°14.611 2°54.957 12.2 341 11.7 101410 42
2012-06-13 06:28:48 51°14.624 2°54.947 12.3 343 11.8 101390 43
2012-06-13 06:28:53 51°14.637 2°54.937 8.5 343 11.8 101390 43
2012-06-13 06:28:58 51°14.649 2°54.927 12.1 342 11.8 101400 42
2012-06-13 06:29:03 51°14.661 2°54.916 9.1 343 11.8 101400 42
2012-06-13 06:29:08 51°14.674 2°54.905 8.3 344 11.7 101400 41
2012-06-13 06:29:12 51°14.683 2°54.895 8.1 343 11.7 101400 41
2012-06-13 06:29:18 51°14.697 2°54.88 8.7 346 11.8 101400 41
2012-06-13 06:29:22 51°14.706 2°54.87 14.4 342 11.8 101400 41
2012-06-13 06:29:27 51°14.717 2°54.857 14 347 11.8 101400 41
2012-06-13 06:29:31 51°14.726 2°54.847 10 347 11.8 101400 41
2012-06-13 06:29:36 51°14.738 2°54.834 9 349 11.8 101400 41
2012-06-13 06:29:41 51°14.749 2°54.821 8.4 348 11.8 101400 41
2012-06-13 06:29:47 51°14.762 2°54.804 13.1 347 11.8 101390 41
2012-06-13 06:29:51 51°14.771 2°54.794 9.5 281 11.8 101390 41
2012-06-13 06:29:57 51°14.785 2°54.777 8.5 348 11.7 101390 40
2012-06-13 06:30:02 51°14.796 2°54.764 8.3 347 11.7 101390 40
2012-06-13 06:30:07 51°14.808 2°54.751 12.2 348 11.7 101390 40
2012-06-13 06:30:12 51°14.82 2°54.739 12.8 347 11.7 101390 40
2012-06-13 06:30:16 51°14.829 2°54.729 10.9 344 11.7 101390 39
2012-06-13 06:30:21 51°14.841 2°54.715 10.4 345 11.7 101390 39
2012-06-13 06:30:26 51°14.852 2°54.702 11.8 344 11.7 101400 39
2012-06-13 06:30:31 51°14.864 2°54.689 8.3 345 11.7 101400 39
2012-06-13 06:30:36 51°14.876 2°54.677 12 348 11.7 101400 40
2012-06-13 06:30:41 51°14.887 2°54.665 8.5 345 11.7 101400 40
2012-06-13 06:30:46 51°14.899 2°54.653 12.5 345 11.7 101410 41
2012-06-13 06:30:51 51°14.91 2°54.64 8.4 347 11.7 101410 41
2012-06-13 06:30:56 51°14.922 2°54.626 11.4 347 11.7 101400 40
2012-06-13 06:31:00 51°14.93 2°54.614 12.4 346 11.7 101400 40
2012-06-13 06:31:05 51°14.941 2°54.601 8.6 346 11.7 101400 39
2012-06-13 06:31:11 51°14.956 2°54.587 12.7 347 11.7 101400 39
2012-06-13 06:31:16 51°14.968 2°54.576 9.1 347 11.7 101390 39
2012-06-13 06:31:20 51°14.978 2°54.567 9.2 344 11.7 101390 39
2012-06-13 06:31:25 51°14.991 2°54.558 9.9 343 11.7 101410 39
2012-06-13 06:31:30 51°15.004 2°54.55 9.3 337 11.7 101410 39
2012-06-13 06:31:35 51°15.017 2°54.544 10.1 337 11.7 101390 40
2012-06-13 06:31:41 51°15.031 2°54.542 8.4 337 11.7 101390 40
2012-06-13 06:31:45 51°15.04 2°54.54 7.8 334 11.7 101400 41
2012-06-13 06:31:50 51°15.051 2°54.54 8.5 286 11.7 101400 41
2012-06-13 06:31:55 51°15.061 2°54.541 9 331 11.7 101410 40
2012-06-13 06:32:01 51°15.071 2°54.544 7.1 332 11.7 101410 40
2012-06-13 06:32:05 51°15.077 2°54.546 8 330 11.8 101410 40
2012-06-13 06:32:11 51°15.086 2°54.55 8 328 11.8 101410 40
2012-06-13 06:32:16 51°15.093 2°54.554 7.6 328 11.8 101410 41
2012-06-13 06:32:21 51°15.099 2°54.557 7.2 329 11.8 101410 41
2012-06-13 06:32:25 51°15.104 2°54.56 7.1 326 11.8 101420 41
2012-06-13 06:32:31 51°15.109 2°54.564 7.1 303 11.8 101420 41
2012-06-13 06:32:35 51°15.113 2°54.567 4.8 326 11.8 101420 40
2012-06-13 06:32:41 51°15.117 2°54.573 5.1 301 11.8 101420 40
2012-06-13 06:32:45 51°15.12 2°54.576 4.9 320 11.8 101420 40
2012-06-13 06:32:51 51°15.123 2°54.581 5.8 308 11.8 101420 40
2012-06-13 06:32:56 51°15.125 2°54.585 5.1 26 11.8 101420 40
2012-06-13 06:33:01 51°15.127 2°54.588 5.1 302 11.8 101420 40
2012-06-13 06:33:05 51°15.128 2°54.591 5.5 20 11.8 101420 41
2012-06-13 06:33:11 51°15.13 2°54.594 6.3 305 11.8 101420 41
2012-06-13 06:33:16 51°15.131 2°54.597 6.3 22 11.8 101420 41
2012-06-13 06:33:21 51°15.131 2°54.599 5.8 308 11.8 101420 41
2012-06-13 06:33:25 51°15.132 2°54.601 6.2 25 11.9 101430 41
2012-06-13 06:33:31 51°15.133 2°54.604 6.4 309 11.9 101430 41
2012-06-13 06:33:36 51°15.134 2°54.606 5.6 21 11.9 101420 42
2012-06-13 06:33:41 51°15.134 2°54.609 5.4 303 11.9 101420 42
2012-06-13 06:33:46 51°15.135 2°54.611 5.9 20 11.9 101430 40
2012-06-13 06:33:51 51°15.135 2°54.613 6.7 282 11.9 101430 40
2012-06-13 06:33:56 51°15.135 2°54.615 6 249 11.9 101430 41
2012-06-13 06:34:01 51°15.136 2°54.618 4.5 304 11.9 101430 41
2012-06-13 06:34:06 51°15.136 2°54.621 5.3 22 11.9 101430 42
2012-06-13 06:34:11 51°15.137 2°54.624 6 308 11.9 101430 42
2012-06-13 06:34:16 51°15.138 2°54.63 6.2 26 11.9 101430 41
2012-06-13 06:34:21 51°15.139 2°54.635 6.1 309 11.9 101430 41
2012-06-13 06:34:27 51°15.141 2°54.643 6.4 27 11.9 101430 41
2012-06-13 06:34:30 51°15.141 2°54.647 7 302 11.9 101430 41
2012-06-13 06:34:36 51°15.144 2°54.656 7.5 23 11.8 101430 40
2012-06-13 06:34:41 51°15.146 2°54.663 6.9 302 11.8 101430 40
2012-06-13 06:34:46 51°15.149 2°54.67 7.7 24 11.9 101420 41
2012-06-13 06:34:51 51°15.152 2°54.677 6.9 303 11.9 101420 41
2012-06-13 06:34:56 51°15.155 2°54.684 6.8 318 11.9 101420 41
2012-06-13 06:35:01 51°15.159 2°54.69 7.4 308 11.9 101420 41
2012-06-13 06:35:06 51°15.163 2°54.696 7.5 320 11.9 101420 41
2012-06-13 06:35:11 51°15.168 2°54.701 6.7 304 11.9 101420 41
2012-06-13 06:35:15 51°15.171 2°54.705 6 327 11.9 101410 42
2012-06-13 06:35:21 51°15.177 2°54.71 6.9 332 11.9 101410 42
2012-06-13 06:35:27 51°15.184 2°54.714 3.6 331 11.9 101420 41
2012-06-13 06:35:32 51°15.189 2°54.716 7.2 338 11.9 101420 41
2012-06-13 06:35:37 51°15.194 2°54.717 7.5 343 11.9 101410 41
2012-06-13 06:35:42 51°15.199 2°54.717 6.9 346 11.9 101410 41
2012-06-13 06:35:46 51°15.203 2°54.717 7.9 350 11.9 101410 41
2012-06-13 06:35:51 51°15.208 2°54.716 7.6 354 11.9 101410 41
2012-06-13 06:35:57 51°15.213 2°54.713 8.4 357 11.9 101410 40
2012-06-13 06:36:01 51°15.217 2°54.711 6.4 2 11.9 101410 40
2012-06-13 06:36:06 51°15.221 2°54.707 6.1 5 11.8 101410 40
2012-06-13 06:36:11 51°15.224 2°54.703 6.5 11 11.8 101410 40
2012-06-13 06:36:16 51°15.228 2°54.698 6.5 11 11.8 101410 40
2012-06-13 06:36:21 51°15.231 2°54.692 7.1 9 11.8 101410 40
2012-06-13 06:36:25 51°15.234 2°54.685 6.3 6 11.8 101400 39
2012-06-13 06:36:30 51°15.237 2°54.677 6.8 4 11.8 101400 39
2012-06-13 06:36:36 51°15.242 2°54.666 6.4 360 11.8 101410 40
2012-06-13 06:36:41 51°15.247 2°54.656 8 1 11.8 101410 40
2012-06-13 06:36:46 51°15.251 2°54.646 6.4 359 11.9 101410 41
2012-06-13 06:36:51 51°15.257 2°54.635 6.3 360 11.9 101410 41
2012-06-13 06:36:56 51°15.262 2°54.625 6.3 1 11.8 101410 39
2012-06-13 06:37:01 51°15.268 2°54.614 8.6 360 11.8 101410 39
2012-06-13 06:37:06 51°15.274 2°54.604 6.9 358 11.8 101410 40
2012-06-13 06:37:10 51°15.28 2°54.595 10.2 357 11.8 101410 40
2012-06-13 06:37:15 51°15.287 2°54.585 7.1 358 11.8 101410 40
2012-06-13 06:37:20 51°15.294 2°54.575 6.7 355 11.8 101410 40
2012-06-13 06:37:26 51°15.304 2°54.563 10 350 11.8 101410 40
2012-06-13 06:37:31 51°15.312 2°54.553 7.1 349 11.8 101410 40
2012-06-13 06:37:36 51°15.32 2°54.544 12.1 348 11.8 101400 41
2012-06-13 06:37:41 51°15.329 2°54.534 7.9 348 11.8 101400 41
2012-06-13 06:37:46 51°15.338 2°54.525 11 348 11.9 101410 42
2012-06-13 06:37:51 51°15.347 2°54.516 11.5 281 11.9 101410 42
2012-06-13 06:37:56 51°15.356 2°54.507 10.6 346 11.9 101400 41
2012-06-13 06:38:01 51°15.365 2°54.498 7.7 348 11.9 101400 41
2012-06-13 06:38:05 51°15.372 2°54.491 7.9 348 11.9 101410 41
2012-06-13 06:38:10 51°15.382 2°54.482 8.2 347 11.9 101410 41
2012-06-13 06:38:15 51°15.391 2°54.473 9.2 349 11.8 101400 40
2012-06-13 06:38:19 51°15.398 2°54.466 8.7 346 11.8 101400 40
2012-06-13 06:38:25 51°15.409 2°54.454 7.7 346 11.8 101410 41
2012-06-13 06:38:30 51°15.418 2°54.444 7.2 345 11.8 101410 41
2012-06-13 06:38:35 51°15.428 2°54.435 10.1 347 11.8 101410 41
2012-06-13 06:38:40 51°15.437 2°54.426 7.7 346 11.8 101410 41
2012-06-13 06:38:45 51°15.446 2°54.417 7.5 347 11.8 101400 40
2012-06-13 06:38:51 51°15.458 2°54.406 10.7 349 11.8 101400 40
2012-06-13 06:38:55 51°15.465 2°54.399 7.9 350 11.8 101410 40
2012-06-13 06:39:00 51°15.475 2°54.389 7.1 351 11.8 101410 40
2012-06-13 06:39:06 51°15.486 2°54.378 11.1 352 11.8 101410 39
2012-06-13 06:39:11 51°15.496 2°54.368 11.2 351 11.8 101410 39
2012-06-13 06:39:15 51°15.504 2°54.361 7.5 350 11.7 101410 40
2012-06-13 06:39:19 51°15.511 2°54.353 7.5 349 11.7 101410 40
2012-06-13 06:39:25 51°15.522 2°54.341 11.3 350 11.7 101410 39
2012-06-13 06:39:31 51°15.533 2°54.329 12 351 11.7 101410 39
2012-06-13 06:39:35 51°15.54 2°54.321 7.8 350 11.7 101400 41
2012-06-13 06:39:40 51°15.549 2°54.31 9.7 349 11.7 101400 41
2012-06-13 06:39:45 51°15.558 2°54.301 9.2 350 11.7 101400 40
2012-06-13 06:39:51 51°15.569 2°54.289 9.2 281 11.7 101400 40
2012-06-13 06:39:55 51°15.577 2°54.281 9.2 349 11.7 101410 40
2012-06-13 06:40:00 51°15.586 2°54.271 9.9 346 11.7 101410 40
2012-06-13 06:40:05 51°15.594 2°54.261 10.3 346 11.7 101400 40
2012-06-13 06:40:10 51°15.603 2°54.25 8.3 348 11.7 101400 40
2012-06-13 06:40:15 51°15.612 2°54.24 10.7 347 11.7 101410 40
2012-06-13 06:40:19 51°15.619 2°54.232 9.3 351 11.7 101410 40
2012-06-13 06:40:25 51°15.629 2°54.22 7.7 352 11.7 101410 40
2012-06-13 06:40:30 51°15.638 2°54.209 9.5 350 11.7 101410 40
2012-06-13 06:40:35 51°15.646 2°54.199 8.4 352 11.7 101400 40
2012-06-13 06:40:40 51°15.655 2°54.188 7.4 357 11.7 101400 40
2012-06-13 06:40:45 51°15.663 2°54.177 7.4 356 11.7 101400 40
2012-06-13 06:40:51 51°15.673 2°54.163 8.9 355 11.7 101400 40
2012-06-13 06:40:55 51°15.679 2°54.154 9.1 355 11.7 101400 39
2012-06-13 06:41:00 51°15.687 2°54.142 8.8 356 11.7 101400 39
2012-06-13 06:41:06 51°15.696 2°54.127 7.6 357 11.7 101400 39
2012-06-13 06:41:11 51°15.704 2°54.115 9.4 353 11.7 101400 39
2012-06-13 06:41:15 51°15.71 2°54.105 10.4 350 11.7 101400 41
2012-06-13 06:41:19 51°15.715 2°54.096 8 351 11.7 101400 41
2012-06-13 06:41:25 51°15.724 2°54.081 7.4 351 11.7 101400 40
2012-06-13 06:41:31 51°15.733 2°54.066 10.3 351 11.7 101400 40
2012-06-13 06:41:35 51°15.739 2°54.055 7.4 351 11.8 101400 40
2012-06-13 06:41:40 51°15.746 2°54.042 7.4 351 11.8 101400 40
2012-06-13 06:41:45 51°15.753 2°54.029 8.8 351 11.8 101410 39
2012-06-13 06:41:51 51°15.762 2°54.014 8.2 280 11.8 101410 39
2012-06-13 06:41:55 51°15.767 2°54.003 7.3 350 11.7 101410 41
2012-06-13 06:42:00 51°15.774 2°53.99 11.2 351 11.7 101410 41
2012-06-13 06:42:05 51°15.781 2°53.976 9.6 350 11.8 101400 41
2012-06-13 06:42:10 51°15.788 2°53.963 12.9 351 11.8 101400 41
2012-06-13 06:42:15 51°15.795 2°53.95 11.5 352 11.8 101420 41
2012-06-13 06:42:19 51°15.8 2°53.939 8.5 353 11.8 101420 41
2012-06-13 06:42:25 51°15.808 2°53.924 10.3 353 11.8 101410 41
2012-06-13 06:42:30 51°15.815 2°53.91 9.5 352 11.8 101410 41
2012-06-13 06:42:35 51°15.822 2°53.897 9.3 353 11.8 101410 41
2012-06-13 06:42:40 51°15.829 2°53.885 10.2 354 11.8 101410 41
2012-06-13 06:42:45 51°15.835 2°53.871 8.4 355 11.7 101400 40
2012-06-13 06:42:50 51°15.842 2°53.858 8.8 354 11.7 101400 40
2012-06-13 06:42:55 51°15.849 2°53.845 8.8 351 11.7 101390 41
2012-06-13 06:43:00 51°15.856 2°53.832 8.7 352 11.7 101390 41
2012-06-13 06:43:05 51°15.864 2°53.82 6.6 354 11.7 101420 41
2012-06-13 06:43:11 51°15.872 2°53.804 5.9 351 11.7 101420 41
2012-06-13 06:43:15 51°15.878 2°53.794 7.1 352 11.7 101410 41
2012-06-13 06:43:20 51°15.885 2°53.78 7.1 352 11.7 101410 41
2012-06-13 06:43:25 51°15.893 2°53.767 6.7 350 11.7 101410 42
2012-06-13 06:43:31 51°15.901 2°53.752 6.9 351 11.7 101410 42
2012-06-13 06:43:35 51°15.907 2°53.742 7.5 352 11.7 101400 42
2012-06-13 06:43:40 51°15.914 2°53.729 8.7 352 11.7 101400 42
2012-06-13 06:43:45 51°15.922 2°53.717 9.8 353 11.7 101420 41
2012-06-13 06:43:51 51°15.931 2°53.702 13.7 353 11.7 101420 41
2012-06-13 06:43:55 51°15.937 2°53.692 7.3 351 11.7 101410 40
2012-06-13 06:44:00 51°15.945 2°53.68 10 350 11.7 101410 40
2012-06-13 06:44:05 51°15.952 2°53.668 8.6 350 11.7 101410 42
2012-06-13 06:44:11 51°15.961 2°53.653 8.3 349 11.7 101410 42
2012-06-13 06:44:15 51°15.967 2°53.644 8.4 349 11.7 101400 41
2012-06-13 06:44:19 51°15.973 2°53.634 9.1 353 11.7 101400 41
2012-06-13 06:44:25 51°15.982 2°53.619 8.5 353 11.7 101410 40
2012-06-13 06:44:31 51°15.991 2°53.604 7.2 350 11.7 101410 40
2012-06-13 06:44:35 51°15.997 2°53.595 9.9 353 11.7 101410 41
2012-06-13 06:44:40 51°16.005 2°53.583 7.2 353 11.7 101410 41
2012-06-13 06:44:45 51°16.012 2°53.57 7.2 351 11.7 101400 41
2012-06-13 06:44:51 51°16.022 2°53.556 7.7 352 11.7 101400 41
2012-06-13 06:44:55 51°16.028 2°53.546 9.6 353 11.7 101400 40
2012-06-13 06:45:00 51°16.036 2°53.534 10.3 354 11.7 101400 40
2012-06-13 06:45:06 51°16.045 2°53.519 11.4 355 11.7 101410 40
2012-06-13 06:45:11 51°16.053 2°53.507 9.3 355 11.7 101410 40
2012-06-13 06:45:15 51°16.059 2°53.497 9.4 355 11.7 101410 41
2012-06-13 06:45:19 51°16.065 2°53.487 7.2 355 11.7 101410 41
2012-06-13 06:45:25 51°16.074 2°53.472 8.6 352 11.7 101410 41
2012-06-13 06:45:31 51°16.083 2°53.457 8.1 349 11.7 101410 41
2012-06-13 06:45:35 51°16.089 2°53.447 8.8 350 11.7 101390 40
2012-06-13 06:45:40 51°16.097 2°53.434 11.2 351 11.7 101390 40
2012-06-13 06:45:45 51°16.105 2°53.421 9.1 352 11.7 101420 42
2012-06-13 06:45:50 51°16.112 2°53.409 10.9 352 11.7 101420 42
2012-06-13 06:45:55 51°16.119 2°53.396 7.5 350 11.8 101410 43
2012-06-13 06:46:00 51°16.127 2°53.383 9.8 352 11.8 101410 43
2012-06-13 06:46:05 51°16.134 2°53.371 8.4 349 11.7 101390 42
2012-06-13 06:46:10 51°16.142 2°53.358 9 348 11.7 101390 42
2012-06-13 06:46:15 51°16.149 2°53.344 7.1 351 11.8 101420 42
2012-06-13 06:46:20 51°16.156 2°53.332 9.8 353 11.8 101420 42
2012-06-13 06:46:25 51°16.164 2°53.319 10.9 352 11.8 101410 43
2012-06-13 06:46:31 51°16.172 2°53.303 9.3 350 11.8 101410 43
2012-06-13 06:46:35 51°16.178 2°53.292 9.7 351 11.8 101410 42
2012-06-13 06:46:39 51°16.184 2°53.282 8.9 350 11.8 101410 42
2012-06-13 06:46:45 51°16.193 2°53.266 7.3 352 11.7 101410 42
2012-06-13 06:46:50 51°16.2 2°53.252 8.3 355 11.7 101410 42
2012-06-13 06:46:55 51°16.207 2°53.239 7.8 356 11.7 101410 41
2012-06-13 06:47:00 51°16.214 2°53.225 11.6 350 11.7 101410 41
2012-06-13 06:47:05 51°16.221 2°53.213 9.6 351 11.7 101410 39
2012-06-13 06:47:11 51°16.23 2°53.197 7.5 279 11.7 101410 39
2012-06-13 06:47:15 51°16.236 2°53.188 11.8 348 11.7 101420 41
2012-06-13 06:47:20 51°16.244 2°53.176 8.6 349 11.7 101420 41
2012-06-13 06:47:26 51°16.254 2°53.162 10.6 349 11.7 101400 42
2012-06-13 06:47:31 51°16.262 2°53.151 10.3 349 11.7 101400 42
2012-06-13 06:47:35 51°16.268 2°53.141 7.5 346 11.7 101410 41
2012-06-13 06:47:39 51°16.275 2°53.132 10.6 348 11.7 101410 41
2012-06-13 06:47:45 51°16.285 2°53.119 9.8 342 11.7 101400 41
2012-06-13 06:47:51 51°16.296 2°53.107 8.3 282 11.7 101400 41
2012-06-13 06:47:55 51°16.304 2°53.099 9.7 347 11.7 101420 42
2012-06-13 06:48:00 51°16.313 2°53.089 9.9 278 11.7 101420 42
2012-06-13 06:48:05 51°16.322 2°53.08 12.1 347 11.8 101400 43
2012-06-13 06:48:11 51°16.333 2°53.069 11.9 343 11.8 101400 43
2012-06-13 06:48:15 51°16.341 2°53.061 11.3 344 11.8 101410 42
2012-06-13 06:48:20 51°16.35 2°53.052 8.9 342 11.8 101410 42
2012-06-13 06:48:25 51°16.359 2°53.043 11.3 344 11.8 101420 42
2012-06-13 06:48:31 51°16.371 2°53.032 10.3 345 11.8 101420 42
2012-06-13 06:48:35 51°16.378 2°53.024 8.3 346 11.8 101420 43
2012-06-13 06:48:39 51°16.386 2°53.017 7.3 345 11.8 101420 43
2012-06-13 06:48:45 51°16.397 2°53.006 9.6 344 11.8 101410 42
2012-06-13 06:48:51 51°16.409 2°52.994 11.1 347 11.8 101410 42
2012-06-13 06:48:55 51°16.416 2°52.987 10.8 348 11.8 101410 41
2012-06-13 06:49:00 51°16.426 2°52.977 6.9 348 11.8 101410 41
2012-06-13 06:49:05 51°16.435 2°52.968 7.2 345 11.7 101410 42
2012-06-13 06:49:10 51°16.445 2°52.959 11 348 11.7 101410 42
2012-06-13 06:49:15 51°16.455 2°52.949 7.3 349 11.7 101410 42
2012-06-13 06:49:20 51°16.464 2°52.94 11 347 11.7 101410 42
2012-06-13 06:49:25 51°16.474 2°52.932 10.5 346 11.7 101410 41
2012-06-13 06:49:30 51°16.485 2°52.925 9.4 344 11.7 101410 41
2012-06-13 06:49:35 51°16.495 2°52.917 7.7 342 11.7 101410 41
2012-06-13 06:49:40 51°16.505 2°52.908 10.2 342 11.7 101410 41
2012-06-13 06:49:46 51°16.517 2°52.899 10.5 344 11.8 101420 42
2012-06-13 06:49:50 51°16.525 2°52.893 9.6 286 11.8 101420 42
2012-06-13 06:49:55 51°16.536 2°52.885 11.6 343 11.8 101410 43
2012-06-13 06:50:00 51°16.546 2°52.878 7.7 281 11.8 101410 43
2012-06-13 06:50:05 51°16.557 2°52.872 11.9 345 11.8 101430 43
2012-06-13 06:50:10 51°16.568 2°52.865 11 344 11.8 101430 43
2012-06-13 06:50:15 51°16.578 2°52.858 7.3 342 11.8 101420 44
2012-06-13 06:50:20 51°16.589 2°52.851 10.4 343 11.8 101420 44
2012-06-13 06:50:25 51°16.599 2°52.844 10 343 11.8 101420 43
2012-06-13 06:50:30 51°16.61 2°52.838 12.2 339 11.8 101420 43
2012-06-13 06:50:35 51°16.621 2°52.831 11.5 341 11.8 101420 42
2012-06-13 06:50:40 51°16.631 2°52.825 11.8 340 11.8 101420 42
2012-06-13 06:50:45 51°16.642 2°52.818 12 340 11.8 101420 42
2012-06-13 06:50:51 51°16.655 2°52.81 5 340 11.8 101420 42
2012-06-13 06:50:55 51°16.663 2°52.805 12.1 340 11.8 101410 43
2012-06-13 06:50:59 51°16.672 2°52.799 7.9 340 11.8 101410 43
2012-06-13 06:51:05 51°16.684 2°52.791 8.3 340 11.8 101420 42
2012-06-13 06:51:11 51°16.697 2°52.782 8.4 339 11.8 101420 42
2012-06-13 06:51:15 51°16.705 2°52.776 11.4 340 11.8 101410 42
2012-06-13 06:51:20 51°16.716 2°52.769 8 341 11.8 101410 42
2012-06-13 06:51:25 51°16.726 2°52.761 9.3 340 11.8 101410 42
2012-06-13 06:51:31 51°16.738 2°52.753 9.8 280 11.8 101410 42
2012-06-13 06:51:35 51°16.746 2°52.746 9.7 343 11.7 101420 42
2012-06-13 06:51:40 51°16.757 2°52.739 10.6 344 11.7 101420 42
2012-06-13 06:51:46 51°16.769 2°52.73 10.4 343 11.7 101420 41
2012-06-13 06:51:50 51°16.777 2°52.724 10.5 281 11.7 101420 41
2012-06-13 06:51:55 51°16.787 2°52.716 8.3 340 11.7 101420 41
2012-06-13 06:51:59 51°16.795 2°52.71 7 341 11.7 101420 41
2012-06-13 06:52:05 51°16.807 2°52.7 7.5 340 11.7 101420 41
2012-06-13 06:52:10 51°16.818 2°52.692 10.2 341 11.7 101420 41
2012-06-13 06:52:15 51°16.828 2°52.684 7.4 340 11.7 101420 42
2012-06-13 06:52:20 51°16.838 2°52.676 11 340 11.7 101420 42
2012-06-13 06:52:25 51°16.848 2°52.668 12.8 339 11.7 101420 41
2012-06-13 06:52:31 51°16.86 2°52.658 8.3 344 11.7 101420 41
2012-06-13 06:52:35 51°16.868 2°52.651 13 343 11.8 101420 43
2012-06-13 06:52:40 51°16.878 2°52.643 7.3 344 11.8 101420 43
2012-06-13 06:52:45 51°16.888 2°52.635 11.1 342 11.8 101430 43
2012-06-13 06:52:51 51°16.9 2°52.625 11 344 11.8 101430 43
2012-06-13 06:52:55 51°16.908 2°52.619 7.4 343 11.7 101420 42
2012-06-13 06:52:59 51°16.916 2°52.611 8 343 11.7 101420 42
2012-06-13 06:53:05 51°16.928 2°52.601 9.1 344 11.7 101410 41
2012-06-13 06:53:11 51°16.94 2°52.59 5.3 343 11.7 101410 41
2012-06-13 06:53:15 51°16.948 2°52.584 8.8 343 11.7 101420 41
2012-06-13 06:53:20 51°16.958 2°52.575 7.7 343 11.7 101420 41
2012-06-13 06:53:25 51°16.968 2°52.566 7.6 343 11.7 101430 42
2012-06-13 06:53:30 51°16.978 2°52.558 12.9 280 11.7 101430 42
2012-06-13 06:53:35 51°16.988 2°52.549 7.9 344 11.7 101420 41
2012-06-13 06:53:40 51°16.998 2°52.54 12.3 343 11.7 101420 41
2012-06-13 06:53:45 51°17.008 2°52.532 7.8 345 11.7 101420 41
2012-06-13 06:53:50 51°17.018 2°52.524 7.7 283 11.7 101420 41
2012-06-13 06:53:55 51°17.028 2°52.515 8.8 345 11.7 101420 40
2012-06-13 06:54:00 51°17.038 2°52.507 7.6 345 11.7 101420 40
2012-06-13 06:54:05 51°17.048 2°52.499 9.1 346 11.7 101420 40
2012-06-13 06:54:10 51°17.058 2°52.491 7.7 346 11.7 101420 40
2012-06-13 06:54:15 51°17.069 2°52.483 12 345 11.7 101430 39
2012-06-13 06:54:21 51°17.081 2°52.475 8.7 344 11.7 101430 39
2012-06-13 06:54:25 51°17.089 2°52.469 7.4 344 11.7 101420 40
2012-06-13 06:54:30 51°17.1 2°52.461 10.5 344 11.7 101420 40
2012-06-13 06:54:35 51°17.11 2°52.454 7.8 344 11.7 101410 40
2012-06-13 06:54:40 51°17.12 2°52.447 9.4 344 11.7 101410 40
2012-06-13 06:54:46 51°17.133 2°52.438 7.3 344 11.7 101420 39
2012-06-13 06:54:51 51°17.143 2°52.431 6.9 279 11.7 101420 39
2012-06-13 06:54:55 51°17.152 2°52.426 7.9 341 11.7 101420 40
2012-06-13 06:54:59 51°17.161 2°52.421 8.7 342 11.7 101420 40
2012-06-13 06:55:05 51°17.174 2°52.412 4.9 342 11.7 101420 39
2012-06-13 06:55:10 51°17.187 2°52.404 9 341 11.7 101420 39
2012-06-13 06:55:15 51°17.2 2°52.395 8.2 341 11.7 101430 40
2012-06-13 06:55:20 51°17.213 2°52.386 12.5 341 11.7 101430 40
2012-06-13 06:55:25 51°17.227 2°52.377 11.6 342 11.7 101420 40
2012-06-13 06:55:31 51°17.244 2°52.366 12.2 342 11.7 101420 40
2012-06-13 06:55:35 51°17.256 2°52.359 8.8 343 11.7 101410 39
2012-06-13 06:55:40 51°17.271 2°52.349 12.8 344 11.7 101410 39
2012-06-13 06:55:45 51°17.286 2°52.34 9.8 341 11.7 101430 40
2012-06-13 06:55:50 51°17.301 2°52.329 12.3 -999 11.7 101430 40
2012-06-13 06:55:55 51°17.317 2°52.32 13.4 339 11.8 101410 40
2012-06-13 06:56:00 51°17.332 2°52.309 14.2 341 11.8 101410 40
2012-06-13 06:56:05 51°17.347 2°52.299 13.7 342 11.8 101410 41
2012-06-13 06:56:10 51°17.363 2°52.289 10.3 338 11.8 101410 41
2012-06-13 06:56:15 51°17.378 2°52.278 9.6 341 11.8 101420 41
2012-06-13 06:56:20 51°17.393 2°52.267 7.7 339 11.8 101420 41
2012-06-13 06:56:25 51°17.407 2°52.254 14 339 11.8 101420 42
2012-06-13 06:56:30 51°17.422 2°52.242 14.8 340 11.8 101420 42
2012-06-13 06:56:35 51°17.436 2°52.23 5.4 342 11.9 101400 43
2012-06-13 06:56:40 51°17.451 2°52.217 15 282 11.9 101400 43
2012-06-13 06:56:45 51°17.465 2°52.204 14.1 340 11.9 101420 43
2012-06-13 06:56:50 51°17.48 2°52.191 9.7 340 11.9 101420 43
2012-06-13 06:56:55 51°17.494 2°52.179 13.7 340 11.8 101410 43
2012-06-13 06:57:00 51°17.508 2°52.165 5.8 340 11.8 101410 43
2012-06-13 06:57:05 51°17.523 2°52.152 9.1 340 11.8 101410 42
2012-06-13 06:57:10 51°17.537 2°52.138 8.6 342 11.8 101410 42
2012-06-13 06:57:15 51°17.551 2°52.125 7.9 343 11.8 101400 42
2012-06-13 06:57:20 51°17.565 2°52.111 5 343 11.8 101400 42
2012-06-13 06:57:25 51°17.579 2°52.096 12.6 341 11.8 101410 42
2012-06-13 06:57:31 51°17.595 2°52.078 12.6 340 11.8 101410 42
2012-06-13 06:57:35 51°17.606 2°52.067 8.6 340 11.8 101410 42
2012-06-13 06:57:40 51°17.621 2°52.054 10.7 342 11.8 101410 42
2012-06-13 06:57:45 51°17.634 2°52.039 10.3 344 11.8 101420 40
2012-06-13 06:57:50 51°17.648 2°52.024 5.5 -999 11.8 101420 40
2012-06-13 06:57:55 51°17.661 2°52.009 14.6 342 11.8 101420 43
2012-06-13 06:58:00 51°17.674 2°51.993 15.1 345 11.8 101420 43
2012-06-13 06:58:05 51°17.688 2°51.978 9.1 344 11.8 101420 42
2012-06-13 06:58:10 51°17.7 2°51.962 6 344 11.8 101420 42
2012-06-13 06:58:15 51°17.713 2°51.946 5.2 342 11.8 101410 43
2012-06-13 06:58:20 51°17.726 2°51.93 9.6 343 11.8 101410 43
2012-06-13 06:58:25 51°17.739 2°51.914 8.7 338 11.8 101410 43
2012-06-13 06:58:30 51°17.752 2°51.899 14 339 11.8 101410 43
2012-06-13 06:58:35 51°17.766 2°51.884 10.8 338 11.8 101420 42
2012-06-13 06:58:39 51°17.776 2°51.872 12.8 337 11.8 101420 42
2012-06-13 06:58:45 51°17.793 2°51.855 9.9 340 11.8 101420 43
2012-06-13 06:58:50 51°17.806 2°51.84 5.9 340 11.8 101420 43
2012-06-13 06:58:55 51°17.82 2°51.825 13.1 338 11.8 101410 43
2012-06-13 06:59:00 51°17.833 2°51.811 12.3 336 11.8 101410 43
2012-06-13 06:59:05 51°17.848 2°51.797 16.5 338 11.8 101420 42
2012-06-13 06:59:11 51°17.864 2°51.78 11.6 340 11.8 101420 42
2012-06-13 06:59:15 51°17.876 2°51.769 14.8 341 11.8 101420 42
2012-06-13 06:59:20 51°17.89 2°51.755 10.3 339 11.8 101420 42
2012-06-13 06:59:25 51°17.904 2°51.741 12.8 341 11.8 101420 42
2012-06-13 06:59:31 51°17.92 2°51.723 5.8 341 11.8 101420 42
2012-06-13 06:59:35 51°17.931 2°51.711 12.1 340 11.8 101410 42
2012-06-13 06:59:39 51°17.942 2°51.7 8.7 341 11.8 101410 42
2012-06-13 06:59:45 51°17.958 2°51.682 9.4 342 11.8 101420 42
2012-06-13 06:59:51 51°17.974 2°51.663 5 283 11.8 101420 42
2012-06-13 06:59:55 51°17.985 2°51.651 5.1 341 11.8 101420 41
2012-06-13 07:00:00 51°17.998 2°51.636 10 337 11.8 101420 41
2012-06-13 07:00:05 51°18.012 2°51.621 11 339 11.7 101420 41
2012-06-13 07:00:11 51°18.028 2°51.604 15.6 281 11.7 101420 41
2012-06-13 07:00:15 51°18.039 2°51.593 7.1 341 11.7 101420 41
2012-06-13 07:00:20 51°18.054 2°51.579 8 340 11.7 101420 41
2012-06-13 07:00:25 51°18.068 2°51.566 9 337 11.7 101410 40
2012-06-13 07:00:30 51°18.082 2°51.552 9.2 341 11.7 101410 40
2012-06-13 07:00:35 51°18.096 2°51.539 5 340 11.7 101420 42
2012-06-13 07:00:39 51°18.107 2°51.527 15.4 338 11.7 101420 42
2012-06-13 07:00:45 51°18.124 2°51.51 16.6 339 11.8 101430 42
2012-06-13 07:00:50 51°18.138 2°51.496 8.2 341 11.8 101430 42
2012-06-13 07:00:55 51°18.152 2°51.482 13.4 340 11.8 101420 42
2012-06-13 07:01:00 51°18.165 2°51.467 9 340 11.8 101420 42
2012-06-13 07:01:05 51°18.179 2°51.452 5.4 340 11.8 101420 42
2012-06-13 07:01:10 51°18.192 2°51.438 7.5 338 11.8 101420 42
2012-06-13 07:01:15 51°18.206 2°51.423 14.4 339 11.7 101420 42
2012-06-13 07:01:20 51°18.22 2°51.408 9.3 339 11.7 101420 42
2012-06-13 07:01:25 51°18.235 2°51.394 8.6 340 11.7 101410 41
2012-06-13 07:01:30 51°18.249 2°51.381 5.6 339 11.7 101410 41
2012-06-13 07:01:35 51°18.263 2°51.368 14.5 341 11.7 101420 41
2012-06-13 07:01:40 51°18.277 2°51.354 13.5 339 11.7 101420 41
2012-06-13 07:01:46 51°18.294 2°51.338 5 340 11.7 101420 42
2012-06-13 07:01:51 51°18.307 2°51.324 8.8 281 11.7 101420 42
2012-06-13 07:01:55 51°18.318 2°51.314 7.8 343 11.7 101430 42
2012-06-13 07:02:00 51°18.332 2°51.3 4.9 342 11.7 101430 42
2012-06-13 07:02:05 51°18.346 2°51.286 8.8 345 11.7 101410 42
2012-06-13 07:02:11 51°18.363 2°51.27 5.3 342 11.7 101410 42
2012-06-13 07:02:15 51°18.374 2°51.258 12.6 342 11.7 101420 42
2012-06-13 07:02:20 51°18.388 2°51.244 8.2 343 11.7 101420 42
2012-06-13 07:02:25 51°18.402 2°51.231 14 341 11.7 101430 42
2012-06-13 07:02:31 51°18.419 2°51.214 8.4 282 11.7 101430 42
2012-06-13 07:02:35 51°18.43 2°51.203 8.1 342 11.7 101420 42
2012-06-13 07:02:39 51°18.442 2°51.192 8.2 343 11.7 101420 42
2012-06-13 07:02:45 51°18.458 2°51.175 8.8 340 11.8 101430 43
2012-06-13 07:02:50 51°18.472 2°51.161 9.2 339 11.8 101430 43
2012-06-13 07:02:55 51°18.485 2°51.145 5.7 341 11.8 101420 43
2012-06-13 07:03:00 51°18.499 2°51.13 6.1 342 11.8 101420 43
2012-06-13 07:03:05 51°18.512 2°51.115 5.8 342 11.8 101430 42
2012-06-13 07:03:10 51°18.525 2°51.1 8.6 342 11.8 101430 42
2012-06-13 07:03:15 51°18.539 2°51.085 13.8 341 11.8 101410 43
2012-06-13 07:03:20 51°18.553 2°51.071 5.4 343 11.8 101410 43
2012-06-13 07:03:25 51°18.567 2°51.056 12.7 343 11.8 101420 42
2012-06-13 07:03:30 51°18.581 2°51.042 8.5 342 11.8 101420 42
2012-06-13 07:03:35 51°18.595 2°51.027 10 342 11.7 101420 41
2012-06-13 07:03:40 51°18.609 2°51.013 13.6 340 11.7 101420 41
2012-06-13 07:03:45 51°18.623 2°50.999 5.6 341 11.7 101420 41
2012-06-13 07:03:50 51°18.636 2°50.984 12.7 281 11.7 101420 41
2012-06-13 07:03:55 51°18.65 2°50.969 11.4 342 11.7 101430 42
2012-06-13 07:04:00 51°18.663 2°50.954 9.7 344 11.7 101430 42
2012-06-13 07:04:05 51°18.677 2°50.939 8.6 344 11.7 101420 41
2012-06-13 07:04:11 51°18.693 2°50.921 9.1 339 11.7 101420 41
2012-06-13 07:04:15 51°18.704 2°50.909 14.9 340 11.7 101420 42
2012-06-13 07:04:20 51°18.717 2°50.894 8.8 342 11.7 101420 42
2012-06-13 07:04:25 51°18.73 2°50.879 8.9 343 11.7 101420 41
2012-06-13 07:04:31 51°18.746 2°50.861 14 343 11.7 101420 41
2012-06-13 07:04:35 51°18.756 2°50.849 14 344 11.8 101430 42
2012-06-13 07:04:40 51°18.77 2°50.834 10.3 342 11.8 101430 42
2012-06-13 07:04:45 51°18.784 2°50.819 15.8 342 11.7 101430 41
2012-06-13 07:04:50 51°18.798 2°50.805 12.6 280 11.7 101430 41
2012-06-13 07:04:55 51°18.812 2°50.791 5.4 342 11.7 101430 41
2012-06-13 07:05:00 51°18.826 2°50.778 10.5 342 11.7 101430 41
2012-06-13 07:05:05 51°18.84 2°50.765 14 342 11.7 101420 41
2012-06-13 07:05:10 51°18.855 2°50.752 12.2 342 11.7 101420 41
2012-06-13 07:05:15 51°18.87 2°50.739 13.1 342 11.7 101420 41
2012-06-13 07:05:20 51°18.885 2°50.727 8.7 343 11.7 101420 41
2012-06-13 07:05:25 51°18.899 2°50.714 12.9 340 11.7 101420 40
2012-06-13 07:05:30 51°18.914 2°50.7 9.4 340 11.7 101420 40
2012-06-13 07:05:35 51°18.928 2°50.687 12.4 340 11.7 101430 41
2012-06-13 07:05:40 51°18.942 2°50.673 5.6 339 11.7 101430 41
2012-06-13 07:05:46 51°18.96 2°50.657 14.8 340 11.7 101430 40
2012-06-13 07:05:51 51°18.974 2°50.643 13.2 280 11.7 101430 40
2012-06-13 07:05:55 51°18.985 2°50.632 5.6 338 11.7 101430 41
2012-06-13 07:05:59 51°18.996 2°50.621 14 339 11.7 101430 41
2012-06-13 07:06:05 51°19.014 2°50.604 13.8 339 11.8 101430 42
2012-06-13 07:06:10 51°19.028 2°50.591 14.7 338 11.8 101430 42
2012-06-13 07:06:15 51°19.042 2°50.577 13.5 339 11.8 101420 42
2012-06-13 07:06:19 51°19.054 2°50.567 12.4 340 11.8 101420 42
2012-06-13 07:06:25 51°19.071 2°50.551 10.3 339 11.8 101420 42
2012-06-13 07:06:30 51°19.086 2°50.537 9.2 342 11.8 101420 42
2012-06-13 07:06:35 51°19.1 2°50.523 12.6 342 11.8 101430 42
2012-06-13 07:06:40 51°19.113 2°50.509 12.5 340 11.8 101430 42
2012-06-13 07:06:45 51°19.127 2°50.495 14.4 339 11.8 101440 42
2012-06-13 07:06:50 51°19.141 2°50.481 14.5 341 11.8 101440 42
2012-06-13 07:06:55 51°19.155 2°50.467 13 342 11.7 101440 42
2012-06-13 07:06:59 51°19.167 2°50.456 8.5 339 11.7 101440 42
2012-06-13 07:07:05 51°19.183 2°50.438 8.8 339 11.8 101440 42
2012-06-13 07:07:10 51°19.197 2°50.423 12.9 340 11.8 101440 42
2012-06-13 07:07:15 51°19.211 2°50.408 14.6 339 11.8 101430 42
2012-06-13 07:07:20 51°19.224 2°50.392 5.2 339 11.8 101430 42
2012-06-13 07:07:25 51°19.238 2°50.377 12.4 341 11.8 101430 43
2012-06-13 07:07:31 51°19.254 2°50.358 8.5 281 11.8 101430 43
2012-06-13 07:07:35 51°19.264 2°50.346 11.8 342 11.8 101430 43
2012-06-13 07:07:40 51°19.277 2°50.33 13.3 341 11.8 101430 43
2012-06-13 07:07:46 51°19.293 2°50.312 13.8 337 11.8 101430 43
2012-06-13 07:07:51 51°19.306 2°50.296 5.7 337 11.8 101430 43
2012-06-13 07:07:55 51°19.317 2°50.284 15 337 11.8 101430 43
2012-06-13 07:07:59 51°19.328 2°50.273 10.6 338 11.8 101430 43
2012-06-13 07:08:05 51°19.344 2°50.255 6.1 337 11.8 101440 43
2012-06-13 07:08:11 51°19.36 2°50.236 15.2 336 11.8 101440 43
2012-06-13 07:08:15 51°19.371 2°50.224 5.5 335 11.8 101430 42
2012-06-13 07:08:20 51°19.384 2°50.21 5.2 285 11.8 101430 42
2012-06-13 07:08:25 51°19.398 2°50.196 5.9 336 11.8 101430 42
2012-06-13 07:08:31 51°19.415 2°50.179 13.2 336 11.8 101430 42
2012-06-13 07:08:35 51°19.426 2°50.168 5.2 335 11.8 101430 43
2012-06-13 07:08:40 51°19.44 2°50.155 13.6 337 11.8 101430 43
2012-06-13 07:08:45 51°19.454 2°50.141 5.4 338 11.8 101430 42
2012-06-13 07:08:51 51°19.471 2°50.125 5.7 335 11.8 101430 42
2012-06-13 07:08:55 51°19.482 2°50.114 11.5 335 11.8 101430 43
2012-06-13 07:08:59 51°19.493 2°50.104 12.8 335 11.8 101430 43
2012-06-13 07:09:05 51°19.51 2°50.088 13.7 337 11.8 101430 42
2012-06-13 07:09:10 51°19.524 2°50.074 12.5 335 11.8 101430 42
2012-06-13 07:09:15 51°19.538 2°50.06 5.4 336 11.8 101430 43
2012-06-13 07:09:20 51°19.551 2°50.046 11.2 337 11.8 101430 43
2012-06-13 07:09:25 51°19.565 2°50.032 5.1 338 11.8 101440 43
2012-06-13 07:09:30 51°19.578 2°50.018 5.4 337 11.8 101440 43
2012-06-13 07:09:35 51°19.592 2°50.004 9.1 336 11.9 101430 43
2012-06-13 07:09:40 51°19.605 2°49.989 9.1 337 11.9 101430 43
2012-06-13 07:09:45 51°19.619 2°49.974 12 338 11.9 101440 43
2012-06-13 07:09:50 51°19.632 2°49.959 13 280 11.9 101440 43
2012-06-13 07:09:55 51°19.645 2°49.944 10.5 340 11.8 101440 42
2012-06-13 07:10:00 51°19.659 2°49.929 6.3 340 11.8 101440 42
2012-06-13 07:10:06 51°19.674 2°49.911 5.8 339 11.8 101430 42
2012-06-13 07:10:10 51°19.685 2°49.899 9.8 338 11.8 101430 42
2012-06-13 07:10:15 51°19.698 2°49.884 5.3 338 11.8 101440 42
2012-06-13 07:10:21 51°19.713 2°49.866 10.2 337 11.8 101440 42
2012-06-13 07:10:25 51°19.724 2°49.854 11.9 336 11.8 101420 42
2012-06-13 07:10:30 51°19.738 2°49.84 13.8 335 11.8 101420 42
2012-06-13 07:10:35 51°19.752 2°49.827 6.1 336 11.8 101440 43
2012-06-13 07:10:40 51°19.765 2°49.813 13.4 335 11.8 101440 43
2012-06-13 07:10:46 51°19.781 2°49.796 5.3 337 11.8 101440 42
2012-06-13 07:10:51 51°19.795 2°49.782 9.5 335 11.8 101440 42
2012-06-13 07:10:55 51°19.806 2°49.772 11 338 11.8 101430 41
2012-06-13 07:10:59 51°19.817 2°49.761 13.4 338 11.8 101430 41
2012-06-13 07:11:05 51°19.834 2°49.745 15.7 338 11.8 101440 40
2012-06-13 07:11:10 51°19.848 2°49.732 6.3 339 11.8 101440 40
2012-06-13 07:11:15 51°19.863 2°49.719 11.9 337 11.8 101440 41
2012-06-13 07:11:19 51°19.874 2°49.709 14.2 338 11.8 101440 41
2012-06-13 07:11:25 51°19.891 2°49.694 14.7 339 11.8 101450 41
2012-06-13 07:11:30 51°19.905 2°49.681 12.7 339 11.8 101450 41
2012-06-13 07:11:35 51°19.919 2°49.668 14.3 338 11.8 101440 41
2012-06-13 07:11:40 51°19.934 2°49.655 6.2 338 11.8 101440 41
2012-06-13 07:11:45 51°19.947 2°49.642 15.7 337 11.8 101430 42
2012-06-13 07:11:50 51°19.961 2°49.628 15.2 284 11.8 101430 42
2012-06-13 07:11:55 51°19.975 2°49.614 11.4 337 11.8 101440 42
2012-06-13 07:12:00 51°19.989 2°49.6 14.3 335 11.8 101440 42
2012-06-13 07:12:05 51°20.002 2°49.586 8.9 338 11.8 101450 42
2012-06-13 07:12:10 51°20.016 2°49.573 15.7 339 11.8 101450 42
2012-06-13 07:12:15 51°20.03 2°49.559 14.2 339 11.8 101440 41
2012-06-13 07:12:20 51°20.044 2°49.545 12.4 339 11.8 101440 41
2012-06-13 07:12:25 51°20.057 2°49.531 5 340 11.8 101440 41
2012-06-13 07:12:30 51°20.071 2°49.517 5.4 341 11.8 101440 41
2012-06-13 07:12:35 51°20.085 2°49.502 13.2 339 11.8 101450 41
2012-06-13 07:12:40 51°20.098 2°49.488 9.6 338 11.8 101450 41
2012-06-13 07:12:46 51°20.115 2°49.472 12.3 339 11.8 101430 41
2012-06-13 07:12:51 51°20.129 2°49.458 13 339 11.8 101430 41
2012-06-13 07:12:55 51°20.14 2°49.447 5.7 336 11.8 101450 41
2012-06-13 07:12:59 51°20.151 2°49.436 10.3 335 11.8 101450 41
2012-06-13 07:13:05 51°20.168 2°49.419 6.1 336 11.7 101440 41
2012-06-13 07:13:11 51°20.184 2°49.403 5.4 337 11.7 101440 41
2012-06-13 07:13:15 51°20.195 2°49.391 12.7 337 11.7 101440 41
2012-06-13 07:13:20 51°20.209 2°49.377 13.3 283 11.7 101440 41
2012-06-13 07:13:25 51°20.223 2°49.362 11.9 337 11.8 101450 41
2012-06-13 07:13:31 51°20.239 2°49.345 9.5 336 11.8 101450 41
2012-06-13 07:13:35 51°20.25 2°49.334 5.9 336 11.7 101440 41
2012-06-13 07:13:40 51°20.264 2°49.32 10.6 334 11.7 101440 41
2012-06-13 07:13:45 51°20.278 2°49.306 10 336 11.7 101440 39
2012-06-13 07:13:50 51°20.292 2°49.292 18.5 342 11.7 101440 39
2012-06-13 07:13:55 51°20.306 2°49.279 15.5 341 11.8 101440 41
2012-06-13 07:13:59 51°20.317 2°49.268 14.8 342 11.8 101440 41
2012-06-13 07:14:05 51°20.334 2°49.252 5.2 342 11.8 101440 41
2012-06-13 07:14:10 51°20.347 2°49.238 6 340 11.8 101440 41
2012-06-13 07:14:15 51°20.361 2°49.223 10.4 339 11.8 101440 42
2012-06-13 07:14:20 51°20.375 2°49.209 14.2 341 11.8 101440 42
2012-06-13 07:14:25 51°20.388 2°49.194 13.6 340 11.8 101440 43
2012-06-13 07:14:30 51°20.401 2°49.18 5.4 339 11.8 101440 43
2012-06-13 07:14:35 51°20.415 2°49.166 10.2 339 11.8 101430 44
2012-06-13 07:14:40 51°20.428 2°49.152 13.6 340 11.8 101430 44
2012-06-13 07:14:45 51°20.442 2°49.138 7.8 340 11.8 101450 42
2012-06-13 07:14:50 51°20.456 2°49.124 10.5 279 11.8 101450 42
2012-06-13 07:14:55 51°20.469 2°49.11 13.6 341 11.8 101430 41
2012-06-13 07:15:00 51°20.483 2°49.096 8.2 341 11.8 101430 41
2012-06-13 07:15:06 51°20.5 2°49.079 9.4 341 11.7 101450 41
2012-06-13 07:15:11 51°20.514 2°49.065 8.5 341 11.7 101450 41
2012-06-13 07:15:15 51°20.525 2°49.053 8.3 341 11.7 101460 42
2012-06-13 07:15:20 51°20.538 2°49.039 12.8 340 11.7 101460 42
2012-06-13 07:15:26 51°20.555 2°49.022 14.3 341 11.8 101440 42
2012-06-13 07:15:30 51°20.566 2°49.011 14 342 11.8 101440 42
2012-06-13 07:15:35 51°20.58 2°48.996 14.8 344 11.8 101440 42
2012-06-13 07:15:40 51°20.594 2°48.982 10.5 345 11.8 101440 42
2012-06-13 07:15:45 51°20.607 2°48.968 10.6 341 11.8 101450 42
2012-06-13 07:15:51 51°20.625 2°48.951 12.6 338 11.8 101450 42
2012-06-13 07:15:55 51°20.636 2°48.94 9.8 337 11.8 101440 42
2012-06-13 07:15:59 51°20.647 2°48.929 10.1 339 11.8 101440 42
2012-06-13 07:16:05 51°20.664 2°48.913 13.3 338 11.8 101450 43
2012-06-13 07:16:10 51°20.678 2°48.899 5.6 340 11.8 101450 43
2012-06-13 07:16:15 51°20.692 2°48.885 13.2 340 11.8 101440 43
2012-06-13 07:16:20 51°20.706 2°48.872 15.1 341 11.8 101440 43
2012-06-13 07:16:25 51°20.72 2°48.858 12.2 341 11.8 101450 41
2012-06-13 07:16:30 51°20.734 2°48.844 5.3 340 11.8 101450 41
2012-06-13 07:16:35 51°20.748 2°48.83 11.1 338 11.8 101460 42
2012-06-13 07:16:40 51°20.762 2°48.817 14 340 11.8 101460 42
2012-06-13 07:16:45 51°20.776 2°48.804 14.9 337 11.8 101440 42
2012-06-13 07:16:50 51°20.79 2°48.789 5.2 336 11.8 101440 42
2012-06-13 07:16:55 51°20.804 2°48.776 12.4 336 11.8 101440 42
2012-06-13 07:17:00 51°20.819 2°48.763 13.5 337 11.8 101440 42
2012-06-13 07:17:05 51°20.833 2°48.749 5 337 11.8 101450 42
2012-06-13 07:17:10 51°20.847 2°48.736 13.7 338 11.8 101450 42
2012-06-13 07:17:15 51°20.862 2°48.723 13.1 340 11.8 101440 42
2012-06-13 07:17:19 51°20.873 2°48.712 9.3 336 11.8 101440 42
2012-06-13 07:17:25 51°20.89 2°48.695 10.8 338 11.8 101450 42
2012-06-13 07:17:30 51°20.904 2°48.681 14.9 342 11.8 101450 42
2012-06-13 07:17:35 51°20.918 2°48.667 6.1 343 11.8 101460 42
2012-06-13 07:17:40 51°20.932 2°48.652 10 342 11.8 101460 42
2012-06-13 07:17:45 51°20.946 2°48.638 8.6 341 11.8 101450 42
2012-06-13 07:17:51 51°20.963 2°48.62 8.9 340 11.8 101450 42
2012-06-13 07:17:55 51°20.974 2°48.608 8.5 340 11.8 101440 42
2012-06-13 07:18:00 51°20.988 2°48.594 12.9 343 11.8 101440 42
2012-06-13 07:18:05 51°21.002 2°48.581 12.9 343 11.8 101440 42
2012-06-13 07:18:11 51°21.019 2°48.564 10.2 341 11.8 101440 42
2012-06-13 07:18:15 51°21.031 2°48.552 5.2 342 11.8 101450 42
2012-06-13 07:18:20 51°21.045 2°48.538 9.8 339 11.8 101450 42
2012-06-13 07:18:25 51°21.059 2°48.524 8.2 340 11.8 101460 41
2012-06-13 07:18:30 51°21.073 2°48.51 5.6 338 11.8 101460 41
2012-06-13 07:18:35 51°21.087 2°48.495 13 340 11.8 101440 42
2012-06-13 07:18:39 51°21.097 2°48.483 10.2 338 11.8 101440 42
2012-06-13 07:18:45 51°21.114 2°48.465 13.6 338 11.8 101450 43
2012-06-13 07:18:50 51°21.128 2°48.45 10.2 336 11.8 101450 43
2012-06-13 07:18:55 51°21.141 2°48.435 14 338 11.9 101450 43
2012-06-13 07:19:00 51°21.155 2°48.419 11.1 338 11.9 101450 43
2012-06-13 07:19:05 51°21.168 2°48.404 9.9 338 11.9 101450 42
2012-06-13 07:19:10 51°21.182 2°48.388 9.3 338 11.9 101450 42
2012-06-13 07:19:15 51°21.196 2°48.373 5.9 338 11.9 101440 43
2012-06-13 07:19:20 51°21.209 2°48.358 12.7 284 11.9 101440 43
2012-06-13 07:19:25 51°21.224 2°48.344 13.5 340 11.9 101450 43
2012-06-13 07:19:30 51°21.238 2°48.329 13.2 340 11.9 101450 43
2012-06-13 07:19:35 51°21.252 2°48.315 9 339 11.9 101450 43
2012-06-13 07:19:40 51°21.266 2°48.301 9.6 341 11.9 101450 43
2012-06-13 07:19:45 51°21.28 2°48.287 5.9 338 11.9 101450 43
2012-06-13 07:19:50 51°21.294 2°48.273 6.1 338 11.9 101450 43
2012-06-13 07:19:55 51°21.309 2°48.258 5.7 338 11.9 101440 42
2012-06-13 07:20:00 51°21.323 2°48.244 10 338 11.9 101440 42
2012-06-13 07:20:05 51°21.337 2°48.23 11.2 340 11.9 101450 43
2012-06-13 07:20:11 51°21.355 2°48.214 9.6 341 11.9 101450 43
2012-06-13 07:20:15 51°21.366 2°48.202 13.9 339 11.8 101450 42
2012-06-13 07:20:20 51°21.38 2°48.189 12.9 339 11.8 101450 42
2012-06-13 07:20:25 51°21.395 2°48.175 6.1 340 11.8 101450 42
2012-06-13 07:20:31 51°21.413 2°48.16 8.8 340 11.8 101450 42
2012-06-13 07:20:35 51°21.424 2°48.149 5 339 11.8 101450 41
2012-06-13 07:20:40 51°21.439 2°48.135 5 339 11.8 101450 41
2012-06-13 07:20:45 51°21.453 2°48.122 13.1 339 11.8 101440 41
2012-06-13 07:20:50 51°21.468 2°48.109 9.6 281 11.8 101440 41
2012-06-13 07:20:55 51°21.483 2°48.095 13.3 340 11.8 101460 41
2012-06-13 07:21:00 51°21.498 2°48.082 8.9 342 11.8 101460 41
2012-06-13 07:21:05 51°21.513 2°48.069 13.5 342 11.8 101460 41
2012-06-13 07:21:10 51°21.527 2°48.056 13.6 342 11.8 101460 41
2012-06-13 07:21:15 51°21.542 2°48.043 10.2 341 11.8 101460 41
2012-06-13 07:21:20 51°21.556 2°48.03 6.2 341 11.8 101460 41
2012-06-13 07:21:25 51°21.571 2°48.017 14.2 338 11.8 101450 41
2012-06-13 07:21:30 51°21.585 2°48.004 11.2 341 11.8 101450 41
2012-06-13 07:21:35 51°21.6 2°47.992 5.2 341 11.8 101450 41
2012-06-13 07:21:40 51°21.615 2°47.979 16.5 338 11.8 101450 41
2012-06-13 07:21:45 51°21.629 2°47.967 9 339 11.8 101450 40
2012-06-13 07:21:50 51°21.643 2°47.954 11.2 338 11.8 101450 40
2012-06-13 07:21:55 51°21.657 2°47.94 13.2 337 11.8 101450 41
2012-06-13 07:22:00 51°21.671 2°47.926 9.2 335 11.8 101450 41
2012-06-13 07:22:06 51°21.687 2°47.908 13.4 337 11.8 101450 42
2012-06-13 07:22:11 51°21.7 2°47.894 4.4 336 11.8 101450 42
2012-06-13 07:22:15 51°21.711 2°47.883 3.9 335 11.8 101440 41
2012-06-13 07:22:19 51°21.722 2°47.871 10.2 340 11.8 101440 41
2012-06-13 07:22:25 51°21.738 2°47.854 6.2 343 11.8 101460 41
2012-06-13 07:22:31 51°21.755 2°47.837 8.5 343 11.8 101460 41
2012-06-13 07:22:35 51°21.765 2°47.825 13.4 342 11.8 101460 41
2012-06-13 07:22:40 51°21.778 2°47.809 11.2 340 11.8 101460 41
2012-06-13 07:22:45 51°21.791 2°47.794 5.6 340 11.8 101450 42
2012-06-13 07:22:51 51°21.807 2°47.776 14.4 282 11.8 101450 42
2012-06-13 07:22:55 51°21.817 2°47.764 10.9 341 11.9 101460 42
2012-06-13 07:23:00 51°21.831 2°47.748 5.7 341 11.9 101460 42
2012-06-13 07:23:05 51°21.844 2°47.734 13.6 341 11.9 101460 42
2012-06-13 07:23:10 51°21.857 2°47.719 10.4 343 11.9 101460 42
2012-06-13 07:23:15 51°21.87 2°47.704 11.4 342 11.9 101450 40
2012-06-13 07:23:19 51°21.881 2°47.692 5.9 342 11.9 101450 40
2012-06-13 07:23:25 51°21.897 2°47.674 14.2 342 11.8 101440 40
2012-06-13 07:23:30 51°21.91 2°47.66 9.4 343 11.8 101440 40
2012-06-13 07:23:35 51°21.923 2°47.645 14.6 344 11.8 101470 41
2012-06-13 07:23:40 51°21.937 2°47.63 12 342 11.8 101470 41
2012-06-13 07:23:45 51°21.95 2°47.616 10.1 341 11.8 101450 40
2012-06-13 07:23:51 51°21.966 2°47.598 10.1 340 11.8 101450 40
2012-06-13 07:23:55 51°21.977 2°47.587 12.6 337 11.8 101460 40
2012-06-13 07:24:00 51°21.991 2°47.573 14.3 340 11.8 101460 40
2012-06-13 07:24:06 51°22.007 2°47.555 9.8 339 11.8 101450 41
2012-06-13 07:24:11 51°22.021 2°47.541 5.6 339 11.8 101450 41
2012-06-13 07:24:15 51°22.032 2°47.53 13 340 11.8 101460 40
2012-06-13 07:24:19 51°22.042 2°47.519 13.9 338 11.8 101460 40
2012-06-13 07:24:25 51°22.059 2°47.503 10.1 341 11.8 101450 39
2012-06-13 07:24:31 51°22.076 2°47.487 5.1 340 11.8 101450 39
2012-06-13 07:24:35 51°22.087 2°47.476 10.3 340 11.8 101450 40
2012-06-13 07:24:40 51°22.102 2°47.464 8.5 339 11.8 101450 40
2012-06-13 07:24:45 51°22.116 2°47.451 14.1 339 11.8 101450 40
2012-06-13 07:24:51 51°22.133 2°47.436 8.3 341 11.8 101450 40
2012-06-13 07:24:55 51°22.145 2°47.426 9.3 338 11.8 101460 40
2012-06-13 07:25:00 51°22.159 2°47.414 8.5 340 11.8 101460 40
2012-06-13 07:25:05 51°22.174 2°47.402 13.1 338 11.8 101460 40
2012-06-13 07:25:10 51°22.189 2°47.389 13.3 337 11.8 101460 40
2012-06-13 07:25:15 51°22.203 2°47.376 10.6 338 11.8 101450 41
2012-06-13 07:25:20 51°22.218 2°47.364 13.5 337 11.8 101450 41
2012-06-13 07:25:25 51°22.232 2°47.351 13.6 339 11.9 101460 42
2012-06-13 07:25:30 51°22.246 2°47.338 8.7 338 11.9 101460 42
2012-06-13 07:25:35 51°22.26 2°47.324 12.1 339 11.9 101450 42
2012-06-13 07:25:40 51°22.274 2°47.311 14.6 339 11.9 101450 42
2012-06-13 07:25:45 51°22.288 2°47.297 11 340 11.9 101450 41
2012-06-13 07:25:50 51°22.302 2°47.283 13.2 340 11.9 101450 41
2012-06-13 07:25:55 51°22.315 2°47.268 4.4 338 11.8 101450 41
2012-06-13 07:26:00 51°22.329 2°47.254 13 340 11.8 101450 41
2012-06-13 07:26:06 51°22.345 2°47.236 9.7 338 11.8 101460 41
2012-06-13 07:26:11 51°22.359 2°47.222 5.2 340 11.8 101460 41
2012-06-13 07:26:15 51°22.369 2°47.211 12.9 338 11.8 101460 41
2012-06-13 07:26:19 51°22.38 2°47.199 14.6 338 11.8 101460 41
2012-06-13 07:26:25 51°22.397 2°47.182 15.7 338 11.8 101470 41
2012-06-13 07:26:30 51°22.411 2°47.169 8.9 340 11.8 101470 41
2012-06-13 07:26:35 51°22.425 2°47.156 5 340 11.8 101460 42
2012-06-13 07:26:40 51°22.439 2°47.142 9.1 340 11.8 101460 42
2012-06-13 07:26:45 51°22.453 2°47.129 12.8 339 11.8 101440 42
2012-06-13 07:26:51 51°22.471 2°47.114 12 281 11.8 101440 42
2012-06-13 07:26:55 51°22.482 2°47.104 11 336 11.8 101460 41
2012-06-13 07:27:00 51°22.497 2°47.091 9.8 337 11.8 101460 41
2012-06-13 07:27:05 51°22.512 2°47.079 9.3 337 11.8 101460 39
2012-06-13 07:27:10 51°22.526 2°47.066 5.3 281 11.8 101460 39
2012-06-13 07:27:15 51°22.541 2°47.053 8.9 336 11.8 101470 41
2012-06-13 07:27:20 51°22.555 2°47.04 14.4 337 11.8 101470 41
2012-06-13 07:27:25 51°22.569 2°47.026 11 337 11.8 101460 40
2012-06-13 07:27:30 51°22.584 2°47.012 12.6 338 11.8 101460 40
2012-06-13 07:27:35 51°22.597 2°46.998 12.8 338 11.8 101460 40
2012-06-13 07:27:40 51°22.612 2°46.985 5.5 340 11.8 101460 40
2012-06-13 07:27:45 51°22.626 2°46.971 5.3 340 11.8 101460 40
2012-06-13 07:27:50 51°22.64 2°46.957 10.3 285 11.8 101460 40
2012-06-13 07:27:55 51°22.654 2°46.944 13.4 343 11.8 101460 40
2012-06-13 07:28:00 51°22.668 2°46.93 12.5 340 11.8 101460 40
2012-06-13 07:28:05 51°22.682 2°46.915 13.7 339 11.8 101470 41
2012-06-13 07:28:10 51°22.696 2°46.901 10.9 343 11.8 101470 41
2012-06-13 07:28:15 51°22.71 2°46.887 10.6 345 11.8 101470 40
2012-06-13 07:28:20 51°22.724 2°46.873 8.9 345 11.8 101470 40
2012-06-13 07:28:25 51°22.738 2°46.858 13.1 344 11.8 101460 41
2012-06-13 07:28:30 51°22.752 2°46.843 14.8 343 11.8 101460 41
2012-06-13 07:28:35 51°22.765 2°46.828 11.9 343 11.8 101460 40
2012-06-13 07:28:40 51°22.779 2°46.814 14.6 343 11.8 101460 40
2012-06-13 07:28:45 51°22.793 2°46.799 15.5 344 11.8 101460 42
2012-06-13 07:28:51 51°22.809 2°46.781 9.7 344 11.8 101460 42
2012-06-13 07:28:55 51°22.82 2°46.769 13.6 344 11.8 101470 41
2012-06-13 07:29:00 51°22.834 2°46.755 14.1 345 11.8 101470 41
2012-06-13 07:29:05 51°22.848 2°46.74 8.6 344 11.7 101460 41
2012-06-13 07:29:11 51°22.865 2°46.723 9.4 345 11.7 101460 41
2012-06-13 07:29:15 51°22.876 2°46.711 11.8 344 11.7 101460 40
2012-06-13 07:29:20 51°22.89 2°46.697 12.6 341 11.7 101460 40
2012-06-13 07:29:25 51°22.904 2°46.683 4.9 343 11.7 101470 40
2012-06-13 07:29:30 51°22.918 2°46.67 9.6 343 11.7 101470 40
2012-06-13 07:29:35 51°22.932 2°46.657 8.9 344 11.7 101480 41
2012-06-13 07:29:40 51°22.947 2°46.644 5.2 342 11.7 101480 41
2012-06-13 07:29:45 51°22.961 2°46.632 5.6 341 11.7 101460 40
2012-06-13 07:29:50 51°22.976 2°46.62 14 284 11.7 101460 40
2012-06-13 07:29:55 51°22.99 2°46.607 5 341 11.7 101470 41
2012-06-13 07:29:59 51°23.002 2°46.597 12.6 342 11.7 101470 41
2012-06-13 07:30:05 51°23.019 2°46.581 14.4 343 11.7 101460 42
2012-06-13 07:30:10 51°23.034 2°46.569 11.5 340 11.7 101460 42
2012-06-13 07:30:15 51°23.048 2°46.554 12.4 345 11.7 101460 41
2012-06-13 07:30:20 51°23.062 2°46.542 14.5 343 11.7 101460 41
2012-06-13 07:30:25 51°23.076 2°46.527 11.4 344 11.7 101460 41
2012-06-13 07:30:31 51°23.093 2°46.509 12.7 346 11.7 101460 41
2012-06-13 07:30:35 51°23.104 2°46.497 13.6 345 11.7 101460 42
2012-06-13 07:30:40 51°23.118 2°46.482 4.4 345 11.7 101460 42
2012-06-13 07:30:46 51°23.134 2°46.464 9.7 345 11.7 101450 41
2012-06-13 07:30:51 51°23.148 2°46.449 13.3 344 11.7 101450 41
2012-06-13 07:30:55 51°23.159 2°46.437 12.1 345 11.7 101470 41
2012-06-13 07:30:59 51°23.17 2°46.425 14.8 344 11.7 101470 41
2012-06-13 07:31:05 51°23.186 2°46.406 12.7 346 11.6 101470 40
2012-06-13 07:31:11 51°23.202 2°46.388 11.5 346 11.6 101470 40
2012-06-13 07:31:15 51°23.213 2°46.375 12.4 345 11.6 101460 40
2012-06-13 07:31:20 51°23.226 2°46.359 8.8 347 11.6 101460 40
2012-06-13 07:31:25 51°23.238 2°46.342 14 349 11.6 101460 40
2012-06-13 07:31:31 51°23.251 2°46.32 13.6 347 11.6 101460 40
2012-06-13 07:31:35 51°23.26 2°46.305 11.9 346 11.6 101460 40
2012-06-13 07:31:40 51°23.27 2°46.285 12.4 348 11.6 101460 40
2012-06-13 07:31:45 51°23.28 2°46.265 10.9 349 11.6 101460 40
2012-06-13 07:31:50 51°23.289 2°46.244 11.9 279 11.6 101460 40
2012-06-13 07:31:55 51°23.298 2°46.223 11.7 348 11.6 101460 40
2012-06-13 07:31:59 51°23.304 2°46.206 10 350 11.6 101460 40
2012-06-13 07:32:05 51°23.314 2°46.18 11.2 353 11.6 101460 40
2012-06-13 07:32:10 51°23.322 2°46.158 8 351 11.6 101460 40
2012-06-13 07:32:15 51°23.33 2°46.137 5.1 345 11.6 101470 40
2012-06-13 07:32:20 51°23.338 2°46.115 9.2 347 11.6 101470 40
2012-06-13 07:32:25 51°23.348 2°46.094 12.5 346 11.6 101460 39
2012-06-13 07:32:30 51°23.356 2°46.072 9.2 348 11.6 101460 39
2012-06-13 07:32:35 51°23.366 2°46.052 12.1 347 11.6 101470 41
2012-06-13 07:32:40 51°23.375 2°46.031 12 347 11.6 101470 41
2012-06-13 07:32:45 51°23.385 2°46.011 11.6 348 11.6 101470 40
2012-06-13 07:32:50 51°23.395 2°45.99 8.7 347 11.6 101470 40
2012-06-13 07:32:55 51°23.405 2°45.97 8.4 347 11.6 101480 40
2012-06-13 07:33:00 51°23.415 2°45.95 11.7 345 11.6 101480 40
2012-06-13 07:33:06 51°23.427 2°45.926 5 346 11.6 101460 40
2012-06-13 07:33:11 51°23.437 2°45.906 8.6 345 11.6 101460 40
2012-06-13 07:33:15 51°23.446 2°45.89 8.3 346 11.6 101460 41
2012-06-13 07:33:19 51°23.454 2°45.873 9 348 11.6 101460 41
2012-06-13 07:33:25 51°23.467 2°45.849 7.6 349 11.6 101470 40
2012-06-13 07:33:31 51°23.48 2°45.826 11.3 343 11.6 101470 40
2012-06-13 07:33:35 51°23.488 2°45.81 8.9 342 11.6 101470 40
2012-06-13 07:33:40 51°23.5 2°45.79 11.6 278 11.6 101470 40
2012-06-13 07:33:45 51°23.511 2°45.771 12.6 341 11.6 101480 41
2012-06-13 07:33:51 51°23.524 2°45.748 12.3 279 11.6 101480 41
2012-06-13 07:33:55 51°23.533 2°45.732 9.4 343 11.7 101470 43
2012-06-13 07:34:00 51°23.544 2°45.712 5 342 11.7 101470 43
2012-06-13 07:34:05 51°23.555 2°45.693 9.7 344 11.7 101470 42
2012-06-13 07:34:10 51°23.566 2°45.674 7.8 342 11.7 101470 42
2012-06-13 07:34:15 51°23.577 2°45.655 8 343 11.6 101470 41
2012-06-13 07:34:19 51°23.586 2°45.64 12.7 344 11.6 101470 41
2012-06-13 07:34:25 51°23.599 2°45.617 8.2 342 11.6 101460 41
2012-06-13 07:34:30 51°23.611 2°45.599 12 343 11.6 101460 41
2012-06-13 07:34:35 51°23.622 2°45.579 14.2 344 11.6 101470 41
2012-06-13 07:34:40 51°23.633 2°45.56 9.7 346 11.6 101470 41
2012-06-13 07:34:45 51°23.643 2°45.54 10.5 347 11.7 101480 42
2012-06-13 07:34:51 51°23.656 2°45.517 9.5 279 11.7 101480 42
2012-06-13 07:34:55 51°23.665 2°45.501 9.1 346 11.7 101470 42
2012-06-13 07:35:00 51°23.676 2°45.482 12.8 343 11.7 101470 42
2012-06-13 07:35:06 51°23.689 2°45.458 9 346 11.7 101460 40
2012-06-13 07:35:11 51°23.7 2°45.439 9.2 347 11.7 101460 40
2012-06-13 07:35:15 51°23.709 2°45.424 12.3 345 11.7 101460 41
2012-06-13 07:35:19 51°23.718 2°45.408 8.3 346 11.7 101460 41
2012-06-13 07:35:25 51°23.731 2°45.385 11.4 346 11.6 101460 40
2012-06-13 07:35:31 51°23.744 2°45.361 8.2 348 11.6 101460 40
2012-06-13 07:35:35 51°23.753 2°45.346 8.3 348 11.6 101460 41
2012-06-13 07:35:40 51°23.764 2°45.326 8.2 279 11.6 101460 41
2012-06-13 07:35:45 51°23.775 2°45.307 10 349 11.6 101460 41
2012-06-13 07:35:50 51°23.786 2°45.288 11.5 347 11.6 101460 41
2012-06-13 07:35:55 51°23.798 2°45.269 12.1 348 11.6 101470 41
2012-06-13 07:36:00 51°23.809 2°45.251 8.4 347 11.6 101470 41
2012-06-13 07:36:05 51°23.82 2°45.231 9.5 348 11.6 101480 42
2012-06-13 07:36:10 51°23.832 2°45.213 8.8 347 11.6 101480 42
2012-06-13 07:36:15 51°23.843 2°45.194 9.6 348 11.6 101460 41
2012-06-13 07:36:20 51°23.854 2°45.175 11.7 348 11.6 101460 41
2012-06-13 07:36:25 51°23.866 2°45.156 11.5 345 11.7 101460 42
2012-06-13 07:36:30 51°23.876 2°45.136 12 348 11.7 101460 42
2012-06-13 07:36:35 51°23.886 2°45.117 10.9 346 11.6 101470 42
2012-06-13 07:36:40 51°23.896 2°45.096 11.9 346 11.6 101470 42
2012-06-13 07:36:45 51°23.907 2°45.076 7.8 347 11.6 101460 41
2012-06-13 07:36:50 51°23.917 2°45.056 4.4 348 11.6 101460 41
2012-06-13 07:36:55 51°23.927 2°45.036 9 346 11.6 101480 41
2012-06-13 07:37:00 51°23.937 2°45.016 12 349 11.6 101480 41
2012-06-13 07:37:06 51°23.949 2°44.991 11.3 345 11.6 101470 41
2012-06-13 07:37:11 51°23.958 2°44.97 8.4 346 11.6 101470 41
2012-06-13 07:37:15 51°23.966 2°44.954 4.4 346 11.6 101470 42
2012-06-13 07:37:19 51°23.974 2°44.937 11.9 346 11.6 101470 42
2012-06-13 07:37:25 51°23.986 2°44.912 13 343 11.6 101480 42
2012-06-13 07:37:30 51°23.996 2°44.891 11.4 344 11.6 101480 42
2012-06-13 07:37:35 51°24.005 2°44.87 8.6 343 11.7 101480 42
2012-06-13 07:37:39 51°24.012 2°44.853 12.3 345 11.7 101480 42
2012-06-13 07:37:45 51°24.024 2°44.828 8.7 345 11.6 101480 40
2012-06-13 07:37:50 51°24.034 2°44.807 9.2 346 11.6 101480 40
2012-06-13 07:37:55 51°24.043 2°44.786 10.7 344 11.6 101470 41
2012-06-13 07:38:00 51°24.053 2°44.764 14.1 343 11.6 101470 41
2012-06-13 07:38:05 51°24.063 2°44.744 11.4 345 11.6 101470 41
2012-06-13 07:38:11 51°24.075 2°44.72 11.4 343 11.6 101470 41
2012-06-13 07:38:15 51°24.083 2°44.703 10.1 344 11.6 101470 41
2012-06-13 07:38:20 51°24.093 2°44.682 11.2 344 11.6 101470 41
2012-06-13 07:38:25 51°24.103 2°44.662 11.9 347 11.6 101460 41
2012-06-13 07:38:30 51°24.113 2°44.641 12.4 287 11.6 101460 41
2012-06-13 07:38:35 51°24.123 2°44.62 12.8 345 11.6 101470 42
2012-06-13 07:38:40 51°24.132 2°44.6 8.5 347 11.6 101470 42
2012-06-13 07:38:45 51°24.142 2°44.58 9.8 345 11.6 101470 41
2012-06-13 07:38:50 51°24.152 2°44.559 12.8 282 11.6 101470 41
2012-06-13 07:38:55 51°24.162 2°44.538 12.1 346 11.6 101470 42
2012-06-13 07:38:59 51°24.17 2°44.522 9.1 348 11.6 101470 42
2012-06-13 07:39:05 51°24.181 2°44.497 11.3 347 11.6 101480 42